Misión y Visión

La misión es proporcionar información fiable a la navegación aérea, contribuyendo a la seguridad, regularidad y eficiencia de la Navegación Aérea Internacional

La visión es contribuir sustancialmente al desarrollo de conocimientos y a la utilización de la meteorología aeronáutica a nivel nacional e internacional, mediante la innovación y la coparticipación con sectores sociales y productivos de la sociedad.

 
  Inicio
  Metar
  Taf
  Wintemp
  SIGMET
  Avisos
  Pronósticos
  Carpeta Meteorologica
  Imágenes Satelitales
  Climatología Aeronáutica
   
  ¿Quienes Somos?
  Contacto
  Eventos
  Publicaciones
  Politica de la Calidad
Taf

DIRECCIONES PARA INFORMES NACIONALES E INTERNACIONALES
(Metar /Speci - TAF)

http://adds.aviationweather.gov/tafs/index.php

http://www.ogimet.com/metars.phtml

PRONÓSTICOS DE AERÓDROMO

Cuando sea necesario, el encabezamiento abreviado puede incluir un cuarto grupo consistente en tres letras para identificar los boletines demorados (RRA), corregidos (CCA) o enmendados (AAA). Los boletines adicionales demorados, corregidos o enmendados deben identificarse con las letras RRB, RRC, etc.; CCB, CCC,etc.;AAB, AAC,etc.

 

DÍA 02/09/2014

 

TAF

MPTO

TAF MPTO 021700Z 0218/0318 3308KT 8000 -RA FEW008 SCT015 BKN080 
BECMG 0221/0300 00000KT 9999 SCT016 BKN090

TAF

MPPA(MPHO)

TAF MPPA 021700Z 0218/0318 11008KT 8000 RA FEW008 SCT015 BKN080 PROB40 TEMPO 0218/0221 7000 TSRA FEW008 SCT015CB BKN080 BECMG 0221/0300 00000KT 9999 FEW016 BKN090

TAF

MPMG

TAF MPMG 021700Z 0218/0306 12006KT 8000 RA FEW008 SCT015 BKN080
PROB40 TEMPO 0218/0221 7000 TSRA FEW008 SCT015CB BKN080
BECMG 0221/0300 00000KT 9999 SCT016 BKN090

TAF MPDA 

 

TAF MPDA 021700Z 0218/0306 11008KT 9999 SCT015 BKN080
 PROB40 TEMPO 0220/0223 7000 RA 
BECMG 0223/0301 00000KT 9999 SCT016 BKN090 

 
 











  Noticias AAC
  Directorio
  Contáctenos
  Historia
  Quejas y Sugerencias
  Etica y Transparencia

  Gestión SSP/SMS
  Seguridad Aérea
  Navegación Aérea
  Transporte Aéreo

  Tramites
  Áeronaves de Alquiler

  Meteorología
  I.S.F.P.A
  Notam
  Peligro Aviario
  AVSEC
  UPIA
  Permisos
 




DECLARACIÓN DE PRIVACIDAD